Flag for Venezuela Weather past 2 weeks in Caracas, Venezuela

Now
77 °F

Passing clouds.


Feels Like: 79 °F
Forecast: 67 / 77 °F
Wind: 2 mph from Northeast

Location: Caracas / Maiquetia Aerop. Intl. Simon Bolivar


UV Index: 10 (Very high)

Visibility: N/A


Pressure: 29.83 "Hg

Humidity: 74%

Dew point: 68 °F

Location of CaracasLocation

Historic Weather in Caracas

°F

Caracas temperature yesterday

Maximum temperature yesterday: 90 °F (at 2:30 PM)
Minimum temperature yesterday: 75 °F (at 8:30 PM)
Average temperature yesterday: 81 °F

Past Weeks' High & Low Weather Summary

 TemperatureHumidityPressure
High90 °F (Apr 22, 2:30 PM)89% (Apr 23, 12:30 AM)30.01 "Hg (Apr 23, 12:30 AM)
Low72 °F (Apr 12, 3:30 AM)20% (Apr 12, 10:30 AM)29.77 "Hg (Apr 22, 3:30 PM)
Average79 °F72%29.89 "Hg
* Reported Apr 8 9:30 PM — Apr 23 9:30 PM, Caracas, Weather by CustomWeather, © 2014

Note: Actual official high and low records may vary slightly from our data, if they occured in-between our weather recording intervals... More about our weather records

Advertising

Historic Weather Conditions — Data for Previous 24 hours

 ConditionsComfort  
Time TempWeatherWind HumidityBarometerVisibility
9:30 PM
Apr 23
77 °FPassing clouds.1 mph79%29.83 "HgN/A
8:30 PM77 °FPassing clouds.2 mph74%29.80 "HgN/A
7:30 PM77 °FPassing clouds.2 mph79%29.80 "HgN/A
6:30 PM81 °FPassing clouds.2 mph74%29.80 "HgN/A
5:30 PM82 °FScattered clouds.3 mph66%29.80 "HgN/A
4:30 PM82 °FScattered clouds.5 mph66%29.80 "HgN/A
3:30 PM84 °FScattered clouds.5 mph62%29.83 "HgN/A
2:30 PM86 °FScattered clouds.6 mph59%29.86 "HgN/A
1:30 PM84 °FScattered clouds.5 mph62%29.86 "HgN/A
12:30 PM86 °FScattered clouds.6 mph62%29.86 "HgN/A
11:30 AM88 °FScattered clouds.3 mph59%29.89 "HgN/A
10:30 AM86 °FScattered clouds.3 mph62%29.89 "HgN/A
9:30 AM82 °FPartly sunny.2 mph70%29.86 "HgN/A
8:30 AM82 °FScattered clouds.3 mph70%29.86 "HgN/A
7:30 AM79 °FPartly sunny.2 mph74%29.86 "HgN/A
6:30 AM77 °FScattered clouds.5 mph79%29.83 "HgN/A
5:30 AM73 °FSunny.3 mph83%29.83 "Hg10 mi
4:30 AM73 °FClear.No wind89%29.83 "Hg10 mi
3:30 AM73 °FClear.No wind83%29.83 "Hg10 mi
2:30 AM73 °FClear.No wind83%29.86 "Hg10 mi
1:30 AM73 °FClear.No wind83%29.86 "Hg10 mi
12:30 AM73 °FClear.No wind89%29.83 "Hg10 mi
11:30 PM
Apr 22
75 °FClear.No wind83%29.83 "Hg10 mi
Weather by CustomWeather, © 2014

See weather overview